SCP
0 0 0 0 0 0 0 0 -0 0 -0 -0 -0 -0 0 0 0 0 0 0 0 0 0 0 0 0 0 0 0 0 0 0 0 0 0 0 0 0 0 0 0 0 0 0 0 0 0 0 0
0 0 0 0 0 -0 0 0 0 0 0 -0 -0 -0 0 0 0 0 0 0 0 0 0 0 0 0 0 0 0 0 0 0 0 0 0 0 0 0 0 0 0 0 0 0 0 0 0 0 0
0 0 0 0 0 -0 0 0 0 0 0 0 0 -0 -0 0 0 0 0 0 0 0 0 0 0 0 0 0 0 0 0 0 0 0 0 0 0 0 0 0 0 0 0 0 0 0 0 0 0
0 0 0 0 0 -0 0 0 0 0 0 0 0 0 -0 -0 0 0 0 0 0 0 0 0 0 0 0 0 0 0 0 0 0 0 0 0 0 0 0 0 0 0 0 0 0 0 0 0 0
0 0 0 0 0 0 0 0 0 0 0 0 0 0 -0 -0 0 0 0 0 0 0 0 0 0 0 0 0 0 0 0 0 0 0 0 0 0 0 0 0 0 0 0 0 0 0 0 0 0
0 0 0 0 0 0 0 0 0 0 0 0 0 0 -0 -0 0 0 0 0 0 0 0 0 0 0 0 0 0 0 0 0 0 0 0 0 0 0 0 0 0 0 0 0 0 0 0 0 0
0 0 0 0 0 0 0 0 0 0 0 0 0 0 -0 -0 0 0 0 0 0 0 0 0 0 0 0 0 0 0 0 0 0 0 0 0 0 0 0 0 0 0 0 0 0 0 0 0 0
0 0 0 0 0 0 0 0 0 0 0 0 0 0 0 0 0 0 0 0 0 0 0 0 0 0 0 0 0 0 0 0 0 0 0 0 0 0 0 0 0 0 0 0 0 0 0 0 0
0 0 0 0 0 0 0 0 0 0 0 0 0 0 0 0 0 0 0 0 0 0 0 0 0 0 0 0 0 0 0 0 0 0 0 0 0 0 0 0 0 0 0 0 0 0 0 0 0
0 0 0 0 0 0 0 0 0 0 0 0 0 0 0 0 0 0 0 0 0 0 0 0 0 0 0 0 0 0 0 0 0 0 0 0 0 0 0 0 0 0 0 0 0 0 0 0 0
0 0 0 0 0 0 0 0 0 0 0 0 0 0 0 0 0 0 0 0 0 0 0 0 0 0 0 0 0 0 0 0 0 0 0 0 0 0 0 0 0 0 0 0 0 0 0 0 0
0 0 0 0 0 0 0 0 0 0 0 0 0 0 0 0 0 0 0 0 0 0 0 0 0 0 0 0 0 0 0 0 0 0 0 0 0 0 0 0 0 0 0 0 0 0 0 0 0
0 0 0 0 0 0 0 0 0 0 0 0 0 0 0 0 0 0 0 0 0 0 0 0 0 0 0 0 0 0 0 0 0 0 0 0 0 0 0 0 0 0 0 0 0 0 0 0 0
0 0 0 0 0 0 0 0 0 0 0 0 0 0 0 0 0 0 0 0 0 0 1 1 1 0 0 0 0 0 0 0 0 0 0 0 0 0 0 0 0 0 0 0 0 0 0 0 0
0 0 0 0 0 0 0 0 0 0 0 0 0 0 0 0 0 0 0 0 0 0 1 1 1 1 1 0 0 0 0 0 0 0 0 0 0 0 0 0 0 0 0 0 0 0 0 0 0
0 0 0 0 0 0 0 0 0 0 0 0 0 0 0 0 0 0 0 0 0 0 1 1 1 1 1 0 0 0 0 0 0 0 0 0 0 0 0 0 0 0 0 0 0 0 0 0 0
0 0 0 0 0 0 0 0 0 0 0 0 0 0 0 0 0 0 0 0 0 0 1 1 1 1 1 0 0 0 0 0 0 0 0 0 0 0 0 0 0 0 0 0 0 0 0 0 0
0 0 0 0 0 0 0 0 0 0 0 0 0 0 0 0 0 0 0 0 0 0 0 1 1 1 1 0 0 0 0 0 0 0 0 0 0 0 0 0 0 0 0 0 0 0 0 0 0
0 0 0 0 0 0 0 0 0 0 0 0 0 0 0 0 0 0 0 0 0 0 0 0 0 0 0 0 0 0 0 0 0 0 0 0 0 0 0 0 0 0 0 0 0 0 0 0 0
0 0 0 0 0 0 0 0 0 0 0 0 0 0 0 0 0 0 0 0 0 0 0 0 0 0 0 0 0 0 0 0 0 0 0 0 0 0 0 0 0 0 0 0 0 0 0 0 0
0 0 0 0 0 0 0 0 0 0 0 0 0 0 0 0 0 0 0 0 0 0 0 0 0 0 0 0 0 0 0 0 0 0 0 0 0 0 0 0 0 0 0 0 0 0 0 0 0
0 0 0 0 0 0 0 0 0 0 0 0 0 0 0 0 0 0 0 0 0 0 0 0 0 0 0 0 0 0 0 0 0 0 0 0 0 0 0 0 0 0 0 0 0 0 0 0 0
0 0 0 0 0 0 0 0 0 0 0 0 0 0 0 0 0 0 0 0 0 0 0 0 0 0 0 0 0 0 0 0 0 0 0 0 0 0 0 0 0 0 0 0 0 0 0 0 0
0 0 0 0 0 0 0 0 0 0 0 0 0 0 0 0 0 0 0 0 0 0 0 0 0 0 0 0 0 0 0 0 0 0 0 0 0 0 0 0 0 0 0 0 0 0 0 0 0
0 0 0 0 0 0 0 0 0 0 0 0 0 0 0 0 0 0 0 0 0 0 0 0 0 0 0 0 0 0 0 0 0 0 0 0 0 0 0 0 0 0 0 0 0 0 0 0 0
0 0 0 0 0 0 0 0 0 0 0 0 0 0 0 0 0 0 0 0 0 0 0 0 0 0 0 0 0 0 0 0 0 0 0 0 0 0 0 0 0 0 0 0 0 0 0 0 0
0 0 0 0 0 0 0 0 0 0 0 0 0 0 0 0 0 0 0 0 0 0 0 0 0 0 0 0 0 0 0 0 0 0 0 0 0 0 0 0 0 0 0 0 0 0 0 0 0
0 0 0 0 0 0 0 0 0 0 0 0 0 0 0 0 0 0 0 0 0 0 0 0 0 0 0 0 0 0 0 0 0 0 0 0 0 0 0 0 0 0 0 0 0 0 0 0 0
0 0 0 0 0 0 0 0 0 0 0 0 0 0 0 0 0 0 0 0 0 0 0 0 0 0 0 0 0 0 0 0 0 0 0 0 0 0 0 0 0 0 0 0 0 0 0 0 0
0 0 0 0 0 0 0 0 0 -0 -0 -0 0 0 0 0 0 0 0 0 0 0 0 0 0 0 0 0 0 0 0 0 0 0 0 0 0 0 0 0 0 0 0 0 0 0 0 0 0
Wind_Speed
4 2 2 4 7 6 2 2 1 2 1 2 3 5 6 4 1 1 0 6 6 7 7 9 11 10 9 8 8 9 9 9 10 11 11 10 10 10 11 11 10 11 11 10 10 10 11 11 11
1 0 3 5 7 3 3 3 2 1 3 3 3 3 3 2 2 3 3 5 7 8 6 7 11 10 10 9 9 9 10 10 11 12 11 11 10 10 11 11 10 10 10 10 10 10 10 10 10
1 2 3 5 4 3 3 2 2 3 4 2 3 3 2 3 3 4 3 8 8 7 5 6 11 11 10 10 10 10 10 11 12 12 12 11 10 10 11 11 10 9 9 9 9 9 9 9 9
3 4 5 6 2 3 3 3 3 6 2 2 3 3 2 1 5 4 6 9 8 6 5 6 11 11 11 10 11 10 10 12 13 12 11 11 10 10 10 10 10 9 9 9 9 8 8 8 8
4 4 5 3 1 2 3 3 3 5 4 3 4 3 1 2 4 7 8 8 7 6 5 5 11 11 11 11 11 11 11 11 12 12 12 11 10 10 10 10 9 9 9 9 9 8 8 8 9
4 4 5 2 1 3 3 1 3 4 3 4 5 4 1 0 4 6 7 6 6 6 5 5 11 12 11 12 12 12 11 11 12 12 12 11 11 10 10 9 9 9 10 9 9 8 8 8 11
4 4 4 4 1 2 1 1 4 5 4 5 6 5 1 2 3 6 6 6 5 5 5 4 5 8 11 12 12 12 12 12 11 11 11 11 10 10 10 9 8 9 10 11 10 9 9 10 11
4 4 3 2 2 2 2 1 3 5 3 3 5 7 5 5 6 7 6 5 5 4 4 4 4 4 5 7 12 13 13 12 12 11 11 11 10 10 10 8 8 9 11 11 10 11 10 11 11
4 5 2 3 4 3 1 1 1 3 5 3 4 5 5 8 10 8 4 3 3 4 4 4 4 4 5 5 8 10 11 11 11 9 11 9 4 4 5 6 7 9 10 10 10 11 11 11 11
4 3 4 3 4 3 1 1 0 3 3 1 1 1 5 11 11 9 7 7 7 6 5 4 5 5 5 5 4 3 4 5 5 4 5 4 3 2 4 4 7 8 9 10 11 11 10 8 5
2 3 3 3 3 2 1 1 1 4 2 5 7 6 9 9 9 9 9 8 8 6 6 6 5 6 6 4 3 3 2 3 4 5 5 4 3 2 2 1 2 4 6 5 6 6 4 4 4
1 2 3 3 1 1 2 1 0 3 5 6 8 9 10 13 13 13 13 10 7 6 7 7 7 6 6 4 3 3 3 3 4 4 6 4 3 2 2 2 2 3 3 3 4 3 4 5 6
1 2 2 4 4 3 1 2 1 3 5 3 6 9 12 15 14 12 10 9 8 9 9 9 10 9 7 6 4 4 3 4 4 4 5 5 4 3 2 2 2 3 3 3 3 4 5 6 5
2 2 3 3 3 2 3 2 1 5 2 4 8 10 11 13 13 10 9 9 10 10 11 10 12 12 10 7 5 4 4 3 4 4 5 6 4 3 3 2 2 2 3 3 3 4 4 4 4
1 2 3 2 2 3 2 4 6 5 2 5 8 9 9 9 9 12 13 11 10 10 11 12 12 10 9 8 7 5 4 4 4 4 5 6 5 4 4 3 3 3 3 4 4 4 4 4 4
1 2 2 4 2 1 4 6 10 2 3 5 6 6 7 7 8 9 9 8 8 9 12 13 12 11 9 7 6 4 5 5 4 4 5 6 6 5 4 3 3 4 4 4 4 3 4 4 4
3 1 1 5 2 1 3 6 10 2 4 5 6 6 6 5 5 5 5 7 8 11 13 14 12 11 10 8 6 5 5 5 4 4 5 6 7 6 5 4 3 4 4 4 4 2 3 4 4
1 1 2 4 4 1 2 7 12 5 3 6 6 6 6 6 3 1 1 3 4 6 8 10 10 7 6 5 4 3 4 4 4 4 5 7 6 7 6 4 5 5 4 4 4 4 3 4 4
1 1 3 5 4 2 6 9 13 9 4 6 7 7 7 5 1 2 2 2 1 2 4 6 5 4 4 3 3 3 3 3 3 3 4 6 7 7 6 5 5 5 5 6 6 4 5 3 3
1 1 3 6 4 2 6 8 9 6 5 6 7 9 7 4 1 1 2 1 1 2 3 3 4 5 4 3 3 2 2 2 2 2 3 5 7 8 8 7 6 6 5 6 6 6 4 3 3
2 2 3 6 7 4 3 7 7 5 3 3 4 6 7 7 6 4 2 1 2 2 3 3 4 5 5 5 3 2 2 2 2 3 3 5 7 8 7 8 7 6 6 8 8 7 8 5 3
4 4 4 6 5 5 2 5 8 6 7 4 3 6 8 6 5 4 4 3 3 3 3 3 4 5 5 6 5 4 4 3 3 3 3 4 6 7 6 6 6 6 5 7 8 7 5 8 5
6 4 3 4 4 4 3 4 9 5 7 7 5 6 7 7 7 6 6 5 3 3 4 4 4 4 5 5 6 5 3 3 2 3 4 4 4 5 6 6 5 4 4 5 6 6 5 5 6
3 2 3 3 2 3 5 5 8 5 7 5 4 6 7 7 6 5 4 4 3 2 3 4 4 4 4 5 5 5 6 5 5 5 5 4 4 5 6 6 5 4 3 4 5 5 6 5 5
3 3 3 4 3 6 3 3 10 7 5 6 6 8 7 7 7 7 7 6 5 5 4 4 4 3 4 5 5 6 6 6 7 6 6 6 5 5 6 5 4 3 2 3 4 5 5 5 5
6 9 7 5 4 5 3 5 9 6 5 3 4 5 6 7 7 8 8 7 7 6 5 5 4 4 4 5 5 5 5 4 4 5 6 6 5 6 8 7 5 4 3 4 5 4 5 5 5
4 6 7 6 3 2 6 6 9 4 2 1 3 5 7 9 9 9 7 7 7 7 7 6 6 5 5 5 5 5 5 5 5 5 5 4 4 5 8 8 7 5 4 4 5 4 5 5 6
3 5 5 6 5 4 5 4 5 6 5 3 4 6 8 8 7 7 6 7 7 7 6 5 6 6 5 5 5 4 5 5 5 5 5 5 5 5 7 7 7 7 5 5 4 4 4 5 5
1 2 4 4 4 5 3 7 7 6 5 6 7 6 7 8 8 7 6 6 6 6 6 6 6 5 5 5 5 5 5 5 5 5 6 6 5 6 7 7 6 6 6 5 4 4 3 4 4
2 3 5 4 4 4 4 9 6 4 5 5 6 6 7 8 7 6 6 5 6 7 6 7 6 6 6 5 5 5 5 5 6 6 6 5 5 5 5 5 5 5 4 4 5 5 5 5 6
Wind_Direction
326 2 84 56 51 49 18 295 247 306 9 26 53 79 96 100 140 230 63 142 129 140 159 170 171 167 166 162 157 153 151 147 145 141 138 133 127 124 122 120 112 106 101 96 89 82 75 72 75
344 22 57 59 77 65 297 272 240 231 147 128 82 81 79 80 92 125 131 155 140 147 157 164 172 168 164 161 159 158 155 150 147 144 139 135 132 129 126 122 114 105 96 91 87 83 77 72 78
282 44 78 70 92 158 250 266 210 118 134 99 77 67 96 148 153 168 170 146 140 150 155 170 172 168 163 161 159 159 155 149 147 143 139 136 133 131 128 124 117 107 96 87 82 80 79 77 84
63 46 54 71 90 214 237 275 167 127 122 76 107 89 58 129 166 168 136 139 141 150 155 174 171 167 165 162 158 157 155 149 143 140 138 135 132 131 131 127 117 106 95 88 82 82 81 82 94
60 73 63 64 329 276 258 269 156 142 155 137 128 125 49 359 130 132 135 141 143 147 155 172 171 165 162 161 157 156 156 148 141 140 139 139 136 135 137 132 118 105 95 91 89 89 82 89 106
52 65 88 138 264 298 279 253 142 128 143 141 131 129 219 75 136 139 135 135 140 145 150 162 171 163 161 160 157 156 158 153 146 142 142 143 140 138 140 134 117 102 96 96 93 84 75 93 114
99 97 136 161 201 297 270 169 152 144 167 180 145 126 227 230 170 131 121 122 132 141 142 152 165 163 164 162 159 159 161 159 150 144 145 143 140 139 138 134 119 104 101 99 90 78 77 95 109
120 99 103 156 172 258 288 165 168 154 177 134 128 146 203 210 146 117 111 122 136 143 144 148 149 145 148 158 163 163 165 162 155 152 150 148 146 145 143 135 124 110 103 96 87 77 81 99 98
99 81 156 203 189 232 284 82 59 139 123 141 176 184 198 143 131 123 118 138 160 167 156 150 146 139 139 151 169 166 167 167 160 158 158 145 121 123 132 137 131 116 107 99 87 77 83 97 89
94 126 212 216 201 207 216 161 112 102 111 140 171 144 128 138 151 162 173 181 187 186 176 162 157 149 149 165 154 151 154 157 146 142 137 116 114 125 131 158 140 124 105 93 82 77 87 89 71
123 185 242 261 216 209 199 200 155 125 185 201 196 174 144 155 169 187 195 193 193 184 182 176 172 164 164 167 155 155 147 145 144 145 135 125 118 113 107 93 94 83 82 73 70 69 79 91 82
168 245 246 277 259 227 204 172 143 182 224 220 195 162 161 173 187 197 202 200 185 175 186 183 183 177 177 174 171 168 162 160 161 155 145 135 133 134 131 125 112 90 81 77 63 68 92 96 83
220 271 276 273 285 278 223 211 236 253 249 230 150 153 178 188 198 206 207 199 186 187 189 190 192 189 183 178 175 176 183 179 168 154 153 148 150 159 152 143 122 105 93 84 74 83 101 102 92
232 280 297 281 269 255 219 252 228 257 237 169 163 180 193 198 201 204 209 206 198 195 192 193 199 199 189 182 179 177 183 183 168 161 161 158 160 165 163 162 143 123 112 103 96 104 107 105 105
240 322 329 298 247 251 180 274 245 237 168 192 196 201 203 208 205 209 213 213 203 195 193 197 203 201 193 185 182 176 178 183 183 172 166 166 170 175 173 175 162 144 130 117 104 101 96 102 102
53 51 334 301 282 258 151 251 267 247 165 211 225 225 223 220 219 221 220 221 209 195 196 203 204 198 193 184 176 171 173 185 194 179 169 173 179 179 174 183 179 157 142 132 127 124 105 105 109
41 92 264 301 300 115 164 249 277 296 186 217 227 233 234 230 224 222 221 226 217 205 199 200 203 197 191 179 172 171 171 187 194 183 172 176 181 182 177 188 180 163 154 148 147 132 127 123 119
218 215 271 287 313 31 257 262 277 283 209 228 218 217 219 214 207 286 290 257 230 205 198 200 201 192 172 159 154 162 174 189 193 190 183 174 179 183 182 186 175 164 159 154 149 138 117 121 128
188 215 273 271 280 297 261 267 277 290 255 227 211 210 213 211 262 7 27 34 81 158 179 188 184 155 140 139 155 172 194 192 193 198 191 182 178 181 185 188 173 170 174 166 150 134 125 121 128
200 281 289 292 299 249 267 274 276 278 250 226 212 206 199 201 244 327 16 49 119 157 162 156 149 133 143 137 133 151 156 170 168 169 188 191 187 185 190 187 182 176 165 157 161 146 134 136 155
232 213 258 280 313 334 309 300 298 292 290 277 224 189 180 192 202 214 222 205 176 185 183 166 150 141 142 137 116 99 90 93 131 172 192 199 192 187 186 186 177 175 170 178 179 166 150 153 171
265 251 272 293 313 295 325 288 279 277 299 277 208 175 181 193 198 204 215 219 210 199 179 171 163 158 155 150 153 161 168 180 187 176 183 190 190 188 185 179 174 178 183 185 187 178 162 153 159
242 281 295 281 256 268 285 261 281 296 279 263 210 190 188 195 197 203 213 222 216 184 173 175 173 171 160 159 160 159 165 171 153 148 157 164 170 171 165 160 162 180 190 188 186 177 167 158 159
250 34 43 44 76 274 244 220 281 256 244 268 212 195 191 196 201 210 216 213 215 189 172 168 173 177 166 168 171 176 179 173 162 161 160 155 149 143 143 139 142 158 171 180 184 180 176 169 161
151 116 356 341 0 257 268 213 252 260 262 241 215 201 194 195 198 207 209 206 206 203 196 182 182 189 176 178 186 193 194 185 181 173 170 163 158 150 145 135 138 142 153 169 167 171 185 175 176
202 169 182 216 229 280 299 239 258 270 291 243 197 185 189 202 207 210 210 203 201 204 203 196 199 204 187 188 196 199 196 187 185 177 171 172 168 159 150 145 141 147 163 174 168 169 179 181 190
183 201 186 155 175 261 281 285 300 289 311 111 151 173 201 213 215 214 207 199 199 203 205 201 204 212 204 197 193 194 194 189 184 176 171 169 168 163 158 154 156 167 175 183 174 176 176 178 193
169 151 110 137 172 233 274 278 259 271 261 257 229 221 227 229 230 225 208 201 200 203 203 198 203 212 212 198 194 190 191 192 182 175 181 180 178 171 165 166 170 174 183 191 192 192 183 181 194
101 113 113 121 155 163 246 268 234 245 260 257 259 258 251 245 238 230 218 204 196 192 193 199 205 208 208 203 200 193 189 185 181 187 194 191 187 184 180 180 179 183 187 191 207 225 201 206 221
212 189 153 159 211 186 194 261 266 256 266 256 265 266 256 251 242 227 212 196 189 192 195 198 201 205 207 198 198 202 189 179 184 194 197 194 196 196 191 188 191 193 193 193 206 225 221 214 229